2016-08-14 00:02:37 r, 18.50m,0000000003Hz,0000129635c,0000000.281s, 033.1C,00002195
2016-08-14 00:12:37 r, 18.50m,0000000003Hz,0000129722c,0000000.282s, 033.1C,00002195
2016-08-14 00:22:37 r, 18.50m,0000000004Hz,0000130259c,0000000.283s, 033.1C,00002195
2016-08-14 00:32:38 r, 18.51m,0000000003Hz,0000131498c,0000000.285s, 032.8C,00002195
2016-08-14 00:42:37 r, 18.52m,0000000003Hz,0000132485c,0000000.288s, 032.8C,00002195
2016-08-14 00:52:37 r, 18.53m,0000000003Hz,0000133466c,0000000.290s, 032.5C,00002195
2016-08-14 01:02:38 r, 18.54m,0000000004Hz,0000135587c,0000000.294s, 032.5C,00002195
2016-08-14 01:12:37 r, 18.56m,0000000003Hz,0000137308c,0000000.298s, 032.5C,00002195
2016-08-14 01:22:37 r, 18.57m,0000000004Hz,0000139202c,0000000.302s, 032.5C,00002195
2016-08-14 01:32:38 r, 18.58m,0000000003Hz,0000141089c,0000000.306s, 032.5C,00002195
2016-08-14 01:42:38 r, 18.60m,0000000003Hz,0000143055c,0000000.310s, 032.2C,00002195
2016-08-14 01:52:37 r, 18.63m,0000000003Hz,0000146710c,0000000.318s, 032.2C,00002195
2016-08-14 02:02:37 r, 18.66m,0000000003Hz,0000150630c,0000000.327s, 032.2C,00002195
2016-08-14 02:12:38 r, 18.67m,0000000003Hz,0000152670c,0000000.331s, 032.2C,00002195
2016-08-14 02:22:38 r, 18.69m,0000000003Hz,0000155557c,0000000.338s, 032.2C,00002195
2016-08-14 02:32:40 r, 18.71m,0000000003Hz,0000158492c,0000000.344s, 031.9C,00002195
2016-08-14 02:42:38 r, 18.72m,0000000003Hz,0000160127c,0000000.347s, 031.9C,00002195
2016-08-14 02:52:37 r, 18.72m,0000000002Hz,0000160371c,0000000.348s, 031.9C,00002195
2016-08-14 03:02:37 r, 18.73m,0000000003Hz,0000161267c,0000000.350s, 031.9C,00002195
2016-08-14 03:12:38 r, 18.72m,0000000003Hz,0000160335c,0000000.348s, 031.5C,00002195
2016-08-14 03:22:37 r, 18.72m,0000000003Hz,0000160316c,0000000.348s, 031.5C,00002195
2016-08-14 03:32:38 r, 18.72m,0000000003Hz,0000160441c,0000000.348s, 031.5C,00002195
2016-08-14 03:42:37 r, 18.72m,0000000003Hz,0000161160c,0000000.350s, 031.2C,00002195
2016-08-14 03:52:37 r, 18.72m,0000000003Hz,0000160347c,0000000.348s, 031.2C,00002195
2016-08-14 04:02:38 r, 18.72m,0000000003Hz,0000160395c,0000000.348s, 031.2C,00002195
2016-08-14 04:12:38 r, 18.72m,0000000003Hz,0000160299c,0000000.348s, 030.9C,00002195
2016-08-14 04:22:37 r, 18.70m,0000000003Hz,0000158658c,0000000.344s, 030.9C,00002195
2016-08-14 04:32:37 r, 18.69m,0000000003Hz,0000156269c,0000000.339s, 030.9C,00002195
2016-08-14 04:42:38 r, 18.63m,0000000003Hz,0000148059c,0000000.321s, 030.9C,00002195
2016-08-14 04:52:37 r, 18.49m,0000000003Hz,0000129636c,0000000.281s, 030.9C,00002195
2016-08-14 05:02:37 r, 18.14m,0000000005Hz,0000094152c,0000000.204s, 030.6C,00002195
2016-08-14 05:12:37 r, 17.49m,0000000009Hz,0000051710c,0000000.112s, 030.6C,00002195
2016-08-14 05:22:37 r, 16.47m,0000000023Hz,0000020096c,0000000.044s, 030.6C,00002195
2016-08-14 05:32:37 r, 14.93m,0000000093Hz,0000004923c,0000000.011s, 030.6C,00002195
2016-08-14 05:42:38 r, 13.09m,0000000516Hz,0000000000c,0000000.000s, 030.6C,00002195
2016-08-14 05:52:37 r, 11.27m,0000002769Hz,0000000000c,0000000.000s, 030.2C,00002195
2016-08-14 06:02:38 r, 09.54m,0000013588Hz,0000000000c,0000000.000s, 030.2C,00002195
2016-08-14 06:12:37 r, 08.20m,0000046699Hz,0000000000c,0000000.000s, 030.2C,00002195
2016-08-14 06:22:37 r, 07.26m,0000111594Hz,0000000000c,0000000.000s, 030.6C,00002195
2016-08-14 06:32:37 r, 06.60m,0000203144Hz,0000000000c,0000000.000s, 030.2C,00002195
2016-08-14 06:42:37 r, 06.16m,0000305809Hz,0000000000c,0000000.000s, 030.2C,00002195
2016-08-14 06:52:37 r, 00.00m,0000404931Hz,0000000000c,0000000.000s, 030.2C,00002195
2016-08-14 07:02:37 r, 00.00m,0000497471Hz,0000000000c,0000000.000s, 030.2C,00002195
2016-08-14 07:12:39 r, 00.00m,0000564214Hz,0000000000c,0000000.000s, 030.6C,00002195
2016-08-14 07:22:37 r, 00.00m,0000564198Hz,0000000000c,0000000.000s, 030.6C,00002195
2016-08-14 07:32:38 r, 00.00m,0000564253Hz,0000000000c,0000000.000s, 030.9C,00002195
2016-08-14 07:42:38 r, 00.00m,0000564198Hz,0000000000c,0000000.000s, 030.9C,00002195
2016-08-14 07:52:37 r, 00.00m,0000564269Hz,0000000000c,0000000.000s, 031.2C,00002195
2016-08-14 08:02:37 r, 00.00m,0000564244Hz,0000000000c,0000000.000s, 031.5C,00002195
2016-08-14 08:12:40 r, 00.00m,0000564303Hz,0000000000c,0000000.000s, 031.9C,00002195
2016-08-14 08:22:37 r, 00.00m,0000564328Hz,0000000000c,0000000.000s, 032.2C,00002195
2016-08-14 08:32:38 r, 00.00m,0000564393Hz,0000000000c,0000000.000s, 032.5C,00002195
2016-08-14 08:42:37 r, 00.00m,0000564396Hz,0000000000c,0000000.000s, 032.8C,00002195
2016-08-14 08:52:37 r, 00.00m,0000564431Hz,0000000000c,0000000.000s, 033.5C,00002195
2016-08-14 09:02:37 r, 00.00m,0000564578Hz,0000000000c,0000000.000s, 033.8C,00002195
2016-08-14 09:12:37 r, 00.00m,0000564683Hz,0000000000c,0000000.000s, 035.4C,00002195
2016-08-14 09:22:37 r, 00.00m,0000564988Hz,0000000000c,0000000.000s, 038.0C,00002195
2016-08-14 09:32:37 r, 00.00m,0000565208Hz,0000000000c,0000000.000s, 040.6C,00002195
2016-08-14 09:42:37 r, 00.00m,0000565344Hz,0000000000c,0000000.000s, 042.5C,00002195
2016-08-14 09:52:37 r, 00.00m,0000565496Hz,0000000000c,0000000.000s, 043.8C,00002195
2016-08-14 10:02:37 r, 00.00m,0000565575Hz,0000000000c,0000000.000s, 045.1C,00002195
2016-08-14 10:12:39 r, 00.00m,0000565680Hz,0000000000c,0000000.000s, 046.4C,00002195
2016-08-14 10:22:37 r, 00.00m,0000565702Hz,0000000000c,0000000.000s, 047.7C,00002195
2016-08-14 10:32:38 r, 00.00m,0000565843Hz,0000000000c,0000000.000s, 048.3C,00002195
2016-08-14 10:42:38 r, 00.00m,0000565846Hz,0000000000c,0000000.000s, 048.6C,00002195
2016-08-14 10:52:37 r, 00.00m,0000565878Hz,0000000000c,0000000.000s, 049.6C,00002195
2016-08-14 11:02:37 r, 00.00m,0000565829Hz,0000000000c,0000000.000s, 050.2C,00002195
2016-08-14 11:12:38 r, 00.00m,0000565948Hz,0000000000c,0000000.000s, 050.9C,00002195
2016-08-14 11:22:37 r, 00.00m,0000566031Hz,0000000000c,0000000.000s, 051.8C,00002195
2016-08-14 11:32:37 r, 00.00m,0000566005Hz,0000000000c,0000000.000s, 052.5C,00002195
2016-08-14 11:42:37 r, 00.00m,0000566070Hz,0000000000c,0000000.000s, 053.5C,00002195
2016-08-14 11:52:38 r, 00.00m,0000566022Hz,0000000000c,0000000.000s, 053.5C,00002195
2016-08-14 12:02:37 r, 00.00m,0000566067Hz,0000000000c,0000000.000s, 054.1C,00002195
2016-08-14 12:12:37 r, 00.00m,0000566097Hz,0000000000c,0000000.000s, 054.4C,00002195
2016-08-14 12:22:37 r, 00.00m,0000566098Hz,0000000000c,0000000.000s, 054.7C,00002195
2016-08-14 12:32:37 r, 00.00m,0000566138Hz,0000000000c,0000000.000s, 055.1C,00002195
2016-08-14 12:42:40 r, 00.00m,0000566201Hz,0000000000c,0000000.000s, 055.4C,00002195
2016-08-14 12:52:38 r, 00.00m,0000566120Hz,0000000000c,0000000.000s, 056.0C,00002195
2016-08-14 13:02:38 r, 00.00m,0000566102Hz,0000000000c,0000000.000s, 055.4C,00002195
2016-08-14 13:12:38 r, 00.00m,0000566121Hz,0000000000c,0000000.000s, 055.7C,00002195
2016-08-14 13:22:38 r, 00.00m,0000566162Hz,0000000000c,0000000.000s, 056.7C,00002195
2016-08-14 13:32:38 r, 00.00m,0000566217Hz,0000000000c,0000000.000s, 057.6C,00002195
2016-08-14 13:42:38 r, 00.00m,0000566197Hz,0000000000c,0000000.000s, 058.6C,00002195
2016-08-14 13:52:38 r, 00.00m,0000566008Hz,0000000000c,0000000.000s, 056.7C,00002195
2016-08-14 14:02:38 r, 00.00m,0000565625Hz,0000000000c,0000000.000s, 051.8C,00002195
2016-08-14 14:12:38 r, 00.00m,0000565634Hz,0000000000c,0000000.000s, 052.2C,00002195
2016-08-14 14:22:38 r, 00.00m,0000565765Hz,0000000000c,0000000.000s, 052.5C,00002195
2016-08-14 14:32:38 r, 00.00m,0000565743Hz,0000000000c,0000000.000s, 052.5C,00002195
2016-08-14 14:42:38 r, 00.00m,0000566020Hz,0000000000c,0000000.000s, 055.4C,00002195
2016-08-14 14:52:38 r, 00.00m,0000565847Hz,0000000000c,0000000.000s, 054.1C,00002195
2016-08-14 15:02:38 r, 00.00m,0000565466Hz,0000000000c,0000000.000s, 050.2C,00002195
2016-08-14 15:12:40 r, 00.00m,0000565423Hz,0000000000c,0000000.000s, 048.9C,00002195
2016-08-14 15:22:38 r, 00.00m,0000565817Hz,0000000000c,0000000.000s, 053.1C,00002195
2016-08-14 15:32:38 r, 00.00m,0000565933Hz,0000000000c,0000000.000s, 055.7C,00002195
2016-08-14 15:42:38 r, 00.00m,0000565603Hz,0000000000c,0000000.000s, 052.8C,00002195
2016-08-14 15:52:38 r, 00.00m,0000565453Hz,0000000000c,0000000.000s, 050.6C,00002195
2016-08-14 16:02:38 r, 00.00m,0000565304Hz,0000000000c,0000000.000s, 048.9C,00002195
2016-08-14 16:12:39 r, 00.00m,0000565470Hz,0000000000c,0000000.000s, 050.2C,00002195
2016-08-14 16:22:38 r, 00.00m,0000565359Hz,0000000000c,0000000.000s, 048.6C,00002195
2016-08-14 16:32:38 r, 00.00m,0000565534Hz,0000000000c,0000000.000s, 050.2C,00002195
2016-08-14 16:42:38 r, 00.00m,0000565473Hz,0000000000c,0000000.000s, 049.6C,00002195
2016-08-14 16:52:39 r, 00.00m,0000565753Hz,0000000000c,0000000.000s, 052.5C,00002195
2016-08-14 17:02:38 r, 00.00m,0000565778Hz,0000000000c,0000000.000s, 053.5C,00002195
2016-08-14 17:12:38 r, 00.00m,0000565866Hz,0000000000c,0000000.000s, 054.7C,00002195
2016-08-14 17:22:39 r, 00.00m,0000565813Hz,0000000000c,0000000.000s, 054.4C,00002195
2016-08-14 17:32:38 r, 00.00m,0000565738Hz,0000000000c,0000000.000s, 054.1C,00002195
2016-08-14 17:42:39 r, 00.00m,0000565757Hz,0000000000c,0000000.000s, 053.8C,00002195
2016-08-14 17:52:39 r, 00.00m,0000565691Hz,0000000000c,0000000.000s, 053.8C,00002195
2016-08-14 18:02:39 r, 00.00m,0000565618Hz,0000000000c,0000000.000s, 053.1C,00002195
2016-08-14 18:12:39 r, 00.00m,0000565637Hz,0000000000c,0000000.000s, 052.8C,00002195
2016-08-14 18:22:40 r, 00.00m,0000565535Hz,0000000000c,0000000.000s, 051.8C,00002195
2016-08-14 18:32:38 r, 00.00m,0000565370Hz,0000000000c,0000000.000s, 049.6C,00002195
2016-08-14 18:42:39 r, 00.00m,0000565407Hz,0000000000c,0000000.000s, 048.9C,00002195
2016-08-14 18:52:39 r, 00.00m,0000565403Hz,0000000000c,0000000.000s, 049.3C,00002195
2016-08-14 19:02:38 r, 00.00m,0000565384Hz,0000000000c,0000000.000s, 048.9C,00002195
2016-08-14 19:12:40 r, 00.00m,0000565342Hz,0000000000c,0000000.000s, 048.3C,00002195
2016-08-14 19:22:39 r, 00.00m,0000565332Hz,0000000000c,0000000.000s, 048.0C,00002195
2016-08-14 19:32:38 r, 00.00m,0000565203Hz,0000000000c,0000000.000s, 046.7C,00002195
2016-08-14 19:42:38 r, 00.00m,0000565212Hz,0000000000c,0000000.000s, 046.0C,00002195
2016-08-14 19:52:38 r, 00.00m,0000565166Hz,0000000000c,0000000.000s, 045.4C,00002195
2016-08-14 20:02:38 r, 00.00m,0000532724Hz,0000000000c,0000000.000s, 044.8C,00002195
2016-08-14 20:12:38 r, 00.00m,0000436733Hz,0000000000c,0000000.000s, 044.1C,00002195
2016-08-14 20:22:38 r, 06.19m,0000298211Hz,0000000000c,0000000.000s, 043.1C,00002195
2016-08-14 20:32:38 r, 06.69m,0000186581Hz,0000000000c,0000000.000s, 042.2C,00002195
2016-08-14 20:42:39 r, 07.39m,0000099302Hz,0000000000c,0000000.000s, 041.2C,00002195
2016-08-14 20:52:39 r, 08.40m,0000039023Hz,0000000000c,0000000.000s, 040.6C,00002195
2016-08-14 21:02:38 r, 09.74m,0000011302Hz,0000000000c,0000000.000s, 039.9C,00002195
2016-08-14 21:12:40 r, 11.42m,0000002408Hz,0000000000c,0000000.000s, 039.3C,00002195
2016-08-14 21:22:38 r, 13.26m,0000000441Hz,0000000000c,0000000.000s, 039.3C,00002195
2016-08-14 21:32:38 r, 15.17m,0000000076Hz,0000006074c,0000000.013s, 039.0C,00002195
2016-08-14 21:42:39 r, 16.57m,0000000021Hz,0000022121c,0000000.048s, 038.6C,00002195
2016-08-14 21:52:39 r, 17.44m,0000000010Hz,0000049017c,0000000.106s, 038.3C,00002195
2016-08-14 22:02:38 r, 17.89m,0000000006Hz,0000074903c,0000000.163s, 038.0C,00002195
2016-08-14 22:12:39 r, 18.07m,0000000006Hz,0000088566c,0000000.192s, 037.7C,00002195
2016-08-14 22:22:38 r, 18.16m,0000000005Hz,0000094902c,0000000.206s, 037.3C,00002195
2016-08-14 22:32:38 r, 18.17m,0000000005Hz,0000095977c,0000000.208s, 037.0C,00002195
2016-08-14 22:42:38 r, 18.18m,0000000005Hz,0000097267c,0000000.211s, 036.7C,00002195
2016-08-14 22:52:38 r, 18.20m,0000000005Hz,0000097819c,0000000.212s, 036.7C,00002195
2016-08-14 23:02:40 r, 18.17m,0000000005Hz,0000095286c,0000000.207s, 036.7C,00002195
2016-08-14 23:12:38 r, 18.08m,0000000005Hz,0000088301c,0000000.192s, 036.7C,00002195
2016-08-14 23:22:38 r, 17.36m,0000000010Hz,0000045345c,0000000.098s, 036.7C,00002195
2016-08-14 23:32:39 r, 16.51m,0000000022Hz,0000020952c,0000000.045s, 036.7C,00002195
2016-08-14 23:42:38 r, 17.49m,0000000009Hz,0000050945c,0000000.111s, 036.7C,00002195
2016-08-14 23:52:40 r, 17.34m,0000000010Hz,0000044319c,0000000.096s, 036.7C,00002195
